This is the latest recevied weather packets stored in our database for station/object 9W2CHF-4. If no packets are shown the sender has not sent any weather packets the latest 1 day(s).
| Time | Temp. | Humidity | Pressure | Rain* | Wind** | Luminosity | Snow |
|---|---|---|---|---|---|---|---|
| 1777903712 | 32.78° C | 79% | 1011.1 hPa | - | - | - | - |
| 1777902811 | 32.78° C | 79% | 1010.9 hPa | - | - | - | - |
| 1777901911 | 32.22° C | 83% | 1010.7 hPa | - | - | - | - |
| 1777901011 | 32.22° C | 80% | 1010.3 hPa | - | - | - | - |
| 1777900110 | 32.22° C | 84% | 1010.2 hPa | - | - | - | - |
| 1777899210 | 32.78° C | 73% | 1009.9 hPa | - | - | - | - |
| 1777898310 | 32.78° C | 75% | 1009.7 hPa | - | - | - | - |
| 1777897410 | 32.22° C | 78% | 1009.4 hPa | - | - | - | - |
| 1777896510 | 31.67° C | 81% | 1009.4 hPa | - | - | - | - |
| 1777895610 | 32.22° C | 80% | 1009.3 hPa | - | - | - | - |
| 1777894710 | 32.22° C | 76% | 1009.2 hPa | - | - | - | - |
| 1777893810 | 32.22° C | 74% | 1009.1 hPa | - | - | - | - |
| 1777892910 | 32.22° C | 66% | 1008.7 hPa | - | - | - | - |
| 1777892009 | 31.67° C | 56% | 1008.8 hPa | - | - | - | - |
| 1777891109 | 32.22° C | 56% | 1008.9 hPa | - | - | - | - |
| 1777890209 | 32.22° C | 56% | 1008.9 hPa | - | - | - | - |
| 1777889309 | 32.22° C | 57% | 1008.6 hPa | - | - | - | - |
| 1777888409 | 32.22° C | 59% | 1008.5 hPa | - | - | - | - |
| 1777887509 | 32.22° C | 59% | 1008.4 hPa | - | - | - | - |
| 1777886609 | 32.78° C | 60% | 1008.6 hPa | - | - | - | - |
| 1777885709 | 32.78° C | 62% | 1008.4 hPa | - | - | - | - |
| 1777884815 | 32.78° C | 66% | 1008.1 hPa | - | - | - | - |
| 1777883915 | 33.33° C | 59% | 1008.3 hPa | - | - | - | - |
| 1777883015 | 33.33° C | 50% | 1008.4 hPa | - | - | - | - |
| 1777882114 | 33.33° C | 52% | 1008.5 hPa | - | - | - | - |
* Rain since midnight (hover to see other rain measurements)
** Current wind speed in m/s (hover to see current wind gust speed)